Simultaneous Nadir Overpasses (SNOs) Predictions

Prediction of SNOs between AQUA and GOES-15 Satellite Orbit:

Table of predicted SNOs for the next 14.0 days since TLE Epoch: 10/7/2023
Index Date Time (AQUA) AQUA Lat,Lon GOES-15 Lat,Lon Distance(km) Time Diff (sec)
1 10/07/2023 07:37:10 0.58, 94.33 -0.27, 90.29 459.19 80
2 10/07/2023 19:57:49 0.34, 89.31 0.24, 89.76 51.38 80
3 10/10/2023 08:04:01 -0.09, 87.75 -0.23, 87.06 78.91 80
4 10/10/2023 20:24:40 0.99, 82.73 0.21, 86.51 429.65 80
5 10/12/2023 20:10:02 -0.15, 86.24 0.22, 84.37 212.10 80
6 10/13/2023 08:30:49 -0.78, 81.19 -0.20, 83.81 298.58 80
7 10/15/2023 08:16:11 0.45, 84.69 -0.22, 81.66 345.34 80
8 10/15/2023 20:36:47 0.52, 79.69 0.19, 81.11 162.10 80
9 10/17/2023 20:22:07 -0.67, 83.21 0.21, 78.97 481.17 80
10 10/18/2023 08:42:53 -0.26, 78.16 -0.19, 78.42 29.87 80
11 10/20/2023 20:48:49 -0.04, 76.66 0.18, 75.72 107.66 80
